Change the Weather History Date:

Tuesday, April 8, 2014

  Actual Average Record
Temperature  
Mean Temperature 56 °F -  
Max Temperature 66 °F 54 °F 78 °F (1999)
Min Temperature 48 °F 37 °F 30 °F (2003)
Degree Days  
Heating Degree Days 9    
Growing Degree Days 6 (Base 50)    
Moisture  
Dew Point 46 °F    
Average Humidity 88    
Maximum Humidity 100    
Minimum Humidity 39    
Precipitation  
Precipitation 0.35 in - - ()
Sea Level Pressure  
Sea Level Pressure 29.52 in    
Wind  
Wind Speed 9 mph (SSW)    
Max Wind Speed 26 mph    
Max Gust Speed 56 mph    
Visibility 4 miles    
Events Rain , Thunderstorm    
Averages and records for this station are not official NWS values.
T = Trace of Precipitation, MM = Missing Value Source: NWS Daily Summary

Daily Weather History Graph

Daily Weather History Graph

Search for Another Location

Airport or City:

Trip Planner

Search our weather history database for the weather conditions in past years. The results will help you decide how hot, cold, wet, or windy it might be!

Date:

Astronomy

Apr. 08, 2014 Rise Set
Actual Time 6:25 AM EDT 7:25 PM EDT
Civil Twilight 5:57 AM EDT 7:53 PM EDT
Nautical Twilight 5:24 AM EDT 8:27 PM EDT
Astronomical Twilight 4:50 AM EDT 9:01 PM EDT
Moon 1:14 PM EDT (4/8) 2:39 AM EDT (4/8)
Length of Visible Light 13h 55m
Length of Day
12h 59m
Waxing Gibbous, 62% of the Moon is Illuminated
Apr 8
Waxing Gibbous
Apr 15
Full
Apr 22
Last Quarter
Apr 29
New
May 6
First Quarter

Hourly Weather History & Observations

Time (EDT) Temp. Dew Point Humidity Pressure Visibility Wind Dir Wind Speed Gust Speed Precip Events Conditions
12:04 AM 48.2 °F 46.4 °F 93% 29.72 in 2.0 mi ESE 11.5 mph 20.7 mph N/A   Overcast
12:24 AM 48.2 °F 46.4 °F 93% 29.70 in 3.0 mi ESE 10.4 mph - N/A   Overcast
12:43 AM 48.2 °F 46.4 °F 93% 29.69 in 2.5 mi ESE 9.2 mph - N/A   Overcast
12:53 AM 48.0 °F 46.9 °F 96% 29.69 in 2.5 mi SE 11.5 mph - N/A   Overcast
1:27 AM 48.2 °F 46.4 °F 93% 29.65 in 1.8 mi ESE 10.4 mph - N/A   Overcast
1:46 AM 48.2 °F 48.2 °F 100% 29.63 in 0.8 mi ESE 6.9 mph - N/A   Mist
1:53 AM 48.0 °F 48.0 °F 100% 29.63 in 0.8 mi SE 6.9 mph - N/A   Mist
2:28 AM 48.2 °F 48.2 °F 100% 29.61 in 1.5 mi SE 6.9 mph - 0.01 in Rain Light Rain
2:38 AM 48.2 °F 48.2 °F 100% 29.61 in 2.0 mi SSE 6.9 mph - 0.01 in Rain Light Rain
2:50 AM 48.2 °F 48.2 °F 100% 29.60 in 1.5 mi SE 9.2 mph - 0.01 in   Overcast
2:53 AM 48.0 °F 48.0 °F 100% 29.60 in 1.5 mi SSE 8.1 mph - 0.01 in   Overcast
3:05 AM 48.2 °F 48.2 °F 100% 29.58 in 3.0 mi SSE 6.9 mph - 0.00 in Rain Light Rain
3:53 AM 48.0 °F 48.0 °F 100% 29.57 in 1.8 mi SSE 4.6 mph - 0.00 in   Overcast
4:18 AM 48.2 °F 48.2 °F 100% 29.55 in 0.8 mi South 5.8 mph - N/A   Mist
4:53 AM 48.0 °F 48.0 °F 100% 29.53 in 0.8 mi South 5.8 mph - 0.08 in Rain , Thunderstorm Thunderstorms and Rain
4:58 AM 48.2 °F 48.2 °F 100% 29.53 in 2.0 mi SSW 8.1 mph - 0.01 in Rain , Thunderstorm Thunderstorms and Rain
5:11 AM 48.2 °F 48.2 °F 100% 29.52 in 2.5 mi South 12.7 mph - 0.08 in Rain Rain
5:14 AM 48.2 °F 48.2 °F 100% 29.52 in 3.0 mi SSW 11.5 mph - 0.09 in Rain Rain
5:36 AM 48.2 °F 48.2 °F 100% 29.51 in 4.0 mi SSW 6.9 mph - 0.09 in Rain Light Rain
5:46 AM 48.2 °F 48.2 °F 100% 29.51 in 2.5 mi WSW 4.6 mph - 0.10 in Rain Light Rain
5:53 AM 48.0 °F 48.0 °F 100% 29.51 in 3.0 mi Variable 4.6 mph - 0.10 in Rain Light Rain
6:25 AM 48.2 °F 48.2 °F 100% 29.51 in 2.5 mi WNW 3.5 mph - 0.02 in Rain , Thunderstorm Thunderstorms and Rain
6:35 AM 48.2 °F 48.2 °F 100% 29.49 in 1.2 mi Calm Calm - 0.13 in Rain , Thunderstorm Heavy Thunderstorms and Rain
6:43 AM 48.2 °F 48.2 °F 100% 29.49 in 3.0 mi West 4.6 mph - 0.14 in Rain , Thunderstorm Thunderstorms and Rain
6:53 AM 48.9 °F 48.9 °F 100% 29.49 in 3.0 mi Calm Calm - 0.16 in Rain Rain
7:00 AM 48.2 °F 48.2 °F 100% 29.49 in 3.0 mi Calm Calm - 0.00 in Rain Light Rain
7:16 AM 48.2 °F 48.2 °F 100% 29.49 in 6.0 mi South 6.9 mph - 0.00 in Rain Light Rain
7:53 AM 48.9 °F 48.9 °F 100% 29.48 in 8.0 mi SSW 9.2 mph - 0.00 in   Overcast
8:00 AM 48.2 °F 48.2 °F 100% 29.48 in 6.0 mi SSW 9.2 mph - N/A   Overcast
8:13 AM 48.2 °F 48.2 °F 100% 29.48 in 2.0 mi SSW 9.2 mph - N/A   Overcast
8:35 AM 48.2 °F 48.2 °F 100% 29.46 in 1.0 mi SSW 11.5 mph 56.4 mph N/A   Overcast
8:43 AM 48.2 °F 48.2 °F 100% 29.46 in 0.8 mi SSW 9.2 mph - N/A   Overcast
8:53 AM 48.9 °F 48.0 °F 97% 29.47 in 0.8 mi SSW 9.2 mph - N/A   Overcast
9:11 AM 48.2 °F 48.2 °F 100% 29.46 in 1.0 mi SW 8.1 mph - N/A   Overcast
9:45 AM 48.2 °F 48.2 °F 100% 29.45 in 0.8 mi SSW 6.9 mph - N/A   Overcast
9:53 AM 48.9 °F 48.9 °F 100% 29.45 in 1.0 mi SW 11.5 mph - N/A   Overcast
10:39 AM 48.2 °F 48.2 °F 100% 29.45 in 2.5 mi SW 5.8 mph - N/A   Overcast
10:46 AM 50.0 °F 50.0 °F 100% 29.45 in 4.0 mi SW 8.1 mph - N/A   Overcast
10:53 AM 50.0 °F 50.0 °F 100% 29.46 in 3.0 mi SW 5.8 mph - N/A   Overcast
11:48 AM 53.6 °F 53.6 °F 100% 29.44 in 4.0 mi SSW 5.8 mph - N/A   Overcast
11:53 AM 54.0 °F 54.0 °F 100% 29.44 in 4.0 mi SW 5.8 mph - N/A   Overcast
12:26 PM 55.4 °F 55.4 °F 100% 29.42 in 7.0 mi SW 9.2 mph - N/A   Scattered Clouds
12:53 PM 57.9 °F 55.9 °F 93% 29.42 in 10.0 mi WSW 12.7 mph - N/A   Partly Cloudy
1:53 PM 63.0 °F 50.0 °F 63% 29.42 in 10.0 mi WSW 17.3 mph 28.8 mph N/A   Scattered Clouds
2:53 PM 64.0 °F 45.0 °F 50% 29.42 in 10.0 mi West 19.6 mph 32.2 mph N/A   Mostly Cloudy
3:53 PM 64.0 °F 42.1 °F 45% 29.42 in 10.0 mi WSW 19.6 mph 31.1 mph N/A   Scattered Clouds
4:06 PM 62.6 °F 41.0 °F 45% 29.41 in 10.0 mi West 24.2 mph 29.9 mph N/A   Mostly Cloudy
4:53 PM 62.1 °F 39.0 °F 43% 29.44 in 10.0 mi West 26.5 mph 32.2 mph N/A   Partly Cloudy
5:53 PM 61.0 °F 36.0 °F 39% 29.47 in 10.0 mi West 24.2 mph 32.2 mph N/A   Scattered Clouds
6:53 PM 57.9 °F 35.1 °F 42% 29.50 in 10.0 mi West 12.7 mph 24.2 mph N/A   Clear
7:53 PM 55.9 °F 35.1 °F 45% 29.54 in 10.0 mi WNW 11.5 mph 24.2 mph N/A   Clear
8:53 PM 55.0 °F 34.0 °F 45% 29.57 in 10.0 mi NW 10.4 mph - N/A   Clear
9:53 PM 52.0 °F 32.0 °F 47% 29.60 in 10.0 mi NW 12.7 mph 19.6 mph N/A   Clear
10:53 PM 50.0 °F 33.1 °F 52% 29.61 in 10.0 mi NNW 10.4 mph 17.3 mph N/A   Clear
11:53 PM 48.9 °F 33.1 °F 54% 29.62 in 10.0 mi NW 9.2 mph 18.4 mph N/A   Clear